Weather History for Wrangell, AK

Change the Weather History Date:

Wednesday, February 20, 2013

  Actual Average Record
Temperature  
Mean Temperature 38 °F -  
Max Temperature 41 °F 39 °F 54 °F (1977)
Min Temperature 35 °F 28 °F 7 °F (1986)
Degree Days  
Heating Degree Days 27    
Moisture  
Dew Point 31 °F    
Average Humidity 78    
Maximum Humidity 87    
Minimum Humidity 65    
Precipitation  
Precipitation 0.33 in - - ()
Sea Level Pressure  
Sea Level Pressure 29.57 in    
Wind  
Wind Speed 12 mph (SE)    
Max Wind Speed 20 mph    
Max Gust Speed 26 mph    
Visibility 10 miles    
Events      
Averages and records for this station are not official NWS values.
T = Trace of Precipitation, MM = Missing Value Source: NWS Daily Summary

Daily Weather History Graph

Daily Weather History Graph

Search for Another Location

Airport:

Trip Planner

Search our weather history database for the weather conditions in past years. The results will help you decide how hot, cold, wet, or windy it might be!

Date:

Astronomy

Feb. 20, 2013 Rise Set
Actual Time 7:03 AM AKST 5:04 PM AKST
Civil Twilight 6:24 AM AKST 5:42 PM AKST
Nautical Twilight 5:40 AM AKST 6:26 PM AKST
Astronomical Twilight 4:57 AM AKST 7:10 PM AKST
Moon 11:55 AM AKST (2/20) 4:05 AM AKST (2/20)
Length of Visible Light 11h 18m
Length of Day
10h 01m
Waxing Gibbous, 77% of the Moon is Illuminated
Feb 20
Waxing Gibbous
Feb 25
Full
Mar 4
Last Quarter
Mar 11
New
Mar 19
First Quarter

Hourly Weather History & Observations

Time (AKST) Temp. Windchill Dew Point Humidity Pressure Visibility Wind Dir Wind Speed Gust Speed Precip Events Conditions
12:16 AM 41.0 °F 32.8 °F 30.2 °F 65% 29.69 in 10.0 mi SE 16.1 mph 23.0 mph N/A   Overcast
12:36 AM 39.2 °F 31.2 °F 30.2 °F 70% 29.68 in 10.0 mi SE 13.8 mph 21.9 mph N/A   Overcast
12:56 AM 39.2 °F 30.5 °F 30.2 °F 70% 29.67 in 10.0 mi SE 16.1 mph 21.9 mph N/A   Overcast
1:16 AM 39.2 °F 31.6 °F 30.2 °F 70% 29.68 in 10.0 mi ESE 12.7 mph 20.7 mph N/A   Overcast
1:36 AM 39.2 °F 31.2 °F 30.2 °F 70% 29.67 in 8.0 mi ESE 13.8 mph - N/A   Overcast
1:56 AM 37.4 °F 29.3 °F 30.2 °F 75% 29.66 in 10.0 mi ESE 12.7 mph - N/A   Overcast
2:16 AM 37.4 °F 29.3 °F 30.2 °F 75% 29.65 in 10.0 mi SE 12.7 mph - 0.01 in   Overcast
2:36 AM 37.4 °F 28.9 °F 32.0 °F 81% 29.64 in 10.0 mi ESE 13.8 mph - 0.02 in   Overcast
2:56 AM 37.4 °F 28.2 °F 30.2 °F 75% 29.63 in 10.0 mi SE 16.1 mph 21.9 mph 0.02 in   Overcast
3:16 AM 37.4 °F 28.2 °F 32.0 °F 81% 29.62 in 9.0 mi ESE 16.1 mph 23.0 mph 0.02 in   Overcast
3:36 AM 37.4 °F 27.8 °F 32.0 °F 81% 29.62 in 10.0 mi ESE 17.3 mph 23.0 mph 0.02 in   Overcast
3:56 AM 37.4 °F 30.3 °F 32.0 °F 81% 29.62 in 10.0 mi ESE 10.4 mph 18.4 mph 0.03 in   Overcast
4:16 AM 37.4 °F 28.9 °F 30.2 °F 75% 29.61 in 10.0 mi ESE 13.8 mph - 0.01 in   Overcast
4:36 AM 37.4 °F 27.5 °F 28.4 °F 70% 29.60 in 10.0 mi SE 18.4 mph 25.3 mph 0.01 in   Overcast
4:56 AM 37.4 °F 27.5 °F 30.2 °F 75% 29.59 in 10.0 mi ESE 18.4 mph 24.2 mph 0.02 in   Overcast
5:16 AM 37.4 °F 28.2 °F 30.2 °F 75% 29.60 in 10.0 mi ESE 16.1 mph - N/A   Overcast
5:36 AM 37.4 °F 28.9 °F 30.2 °F 75% 29.60 in 10.0 mi ESE 13.8 mph 19.6 mph 0.01 in   Overcast
5:56 AM 37.4 °F 28.2 °F 30.2 °F 75% 29.60 in 10.0 mi ESE 16.1 mph 24.2 mph 0.01 in   Overcast
6:16 AM 37.4 °F 29.3 °F 30.2 °F 75% 29.61 in 10.0 mi SE 12.7 mph 16.1 mph N/A   Overcast
6:36 AM 37.4 °F 29.8 °F 30.2 °F 75% 29.61 in 10.0 mi ESE 11.5 mph 16.1 mph 0.01 in   Overcast
6:56 AM 37.4 °F 28.9 °F 30.2 °F 75% 29.61 in 10.0 mi ESE 13.8 mph - 0.02 in   Overcast
7:16 AM 37.4 °F 34.9 °F 30.2 °F 75% 29.61 in 10.0 mi WSW 3.5 mph 16.1 mph 0.02 in   Overcast
7:36 AM 37.4 °F - 30.2 °F 75% 29.62 in 10.0 mi Calm Calm - 0.02 in   Overcast
7:56 AM 37.4 °F 33.8 °F 30.2 °F 75% 29.62 in 10.0 mi West 4.6 mph - 0.03 in   Overcast
8:16 AM 37.4 °F - 30.2 °F 75% 29.62 in 10.0 mi Calm Calm - 0.01 in   Overcast
8:36 AM 37.4 °F - 30.2 °F 75% 29.62 in 10.0 mi Calm Calm - 0.02 in   Overcast
8:56 AM 37.4 °F - 30.2 °F 75% 29.63 in 10.0 mi Calm Calm - 0.02 in   Overcast
9:16 AM 37.4 °F - 32.0 °F 81% 29.63 in 10.0 mi Calm Calm - N/A   Overcast
9:36 AM 37.4 °F 30.8 °F 33.8 °F 87% 29.63 in 10.0 mi East 9.2 mph - N/A   Overcast
9:56 AM 37.4 °F 29.8 °F 33.8 °F 87% 29.63 in 10.0 mi East 11.5 mph 17.3 mph N/A   Overcast
10:16 AM 37.4 °F 29.3 °F 33.8 °F 87% 29.64 in 10.0 mi ESE 12.7 mph - N/A   Overcast
10:36 AM 37.4 °F 30.8 °F 33.8 °F 87% 29.64 in 10.0 mi East 9.2 mph - N/A   Overcast
10:56 AM 39.2 °F - 33.8 °F 81% 29.65 in 10.0 mi Calm Calm - N/A   Overcast
11:16 AM 39.2 °F 33.6 °F 33.8 °F 81% 29.64 in 10.0 mi SE 8.1 mph - N/A   Overcast
11:36 AM 39.2 °F 35.9 °F 32.0 °F 75% 29.65 in 10.0 mi South 4.6 mph - N/A   Overcast
11:56 AM 39.2 °F 34.2 °F 32.0 °F 75% 29.64 in 10.0 mi East 6.9 mph - N/A   Overcast
12:16 PM 39.2 °F 33.6 °F 32.0 °F 75% 29.63 in 10.0 mi SSE 8.1 mph - N/A   Overcast
12:36 PM 37.4 °F 32.8 °F 33.8 °F 87% 29.63 in 10.0 mi SSW 5.8 mph - 0.01 in   Overcast
12:56 PM 39.2 °F 35.0 °F 30.2 °F 70% 29.63 in 10.0 mi East 5.8 mph - 0.02 in   Overcast
1:16 PM 39.2 °F 33.6 °F 33.8 °F 81% 29.62 in 10.0 mi East 8.1 mph - N/A   Overcast
1:36 PM 39.2 °F 31.6 °F 33.8 °F 81% 29.60 in 10.0 mi SE 12.7 mph 17.3 mph N/A   Overcast
1:56 PM 39.2 °F 35.9 °F 32.0 °F 75% 29.60 in 10.0 mi SSE 4.6 mph - N/A   Overcast
2:16 PM 39.2 °F 33.0 °F 32.0 °F 75% 29.60 in 10.0 mi SSE 9.2 mph - N/A   Overcast
2:36 PM 37.4 °F 34.9 °F 32.0 °F 81% 29.60 in 10.0 mi ESE 3.5 mph - N/A   Overcast
2:56 PM 37.4 °F 32.8 °F 32.0 °F 81% 29.59 in 10.0 mi SE 5.8 mph - 0.02 in   Overcast
3:16 PM 37.4 °F 32.8 °F 32.0 °F 81% 29.58 in 10.0 mi ENE 5.8 mph - 0.01 in   Overcast
3:36 PM 37.4 °F - 32.0 °F 81% 29.57 in 7.0 mi Calm Calm - 0.02 in   Overcast
3:56 PM 37.4 °F 30.8 °F 32.0 °F 81% 29.56 in 7.0 mi East 9.2 mph - 0.03 in   Overcast
4:16 PM 37.4 °F 32.1 °F 32.0 °F 81% 29.55 in 7.0 mi NNE 6.9 mph - N/A   Overcast
4:36 PM 35.6 °F 30.7 °F 30.2 °F 81% 29.54 in 7.0 mi SSW 5.8 mph - 0.01 in   Overcast
4:56 PM 35.6 °F 32.8 °F 32.0 °F 87% 29.53 in 7.0 mi SSE 3.5 mph - 0.01 in   Overcast
5:16 PM 35.6 °F 32.8 °F 32.0 °F 87% 29.52 in 7.0 mi South 3.5 mph - 0.01 in   Overcast
5:36 PM 35.6 °F 31.7 °F 32.0 °F 87% 29.52 in 7.0 mi SE 4.6 mph - 0.02 in   Overcast
5:56 PM 35.6 °F 29.2 °F 32.0 °F 87% 29.51 in 7.0 mi SE 8.1 mph - 0.04 in   Overcast
6:16 PM 37.4 °F 30.3 °F 30.2 °F 75% 29.51 in 7.0 mi ESE 10.4 mph - 0.02 in   Overcast
6:36 PM 37.4 °F 28.9 °F 32.0 °F 81% 29.49 in 7.0 mi ESE 13.8 mph 20.7 mph 0.02 in   Overcast
6:56 PM 37.4 °F 28.2 °F 32.0 °F 81% 29.48 in 7.0 mi ESE 16.1 mph 20.7 mph 0.02 in   Overcast
7:16 PM 35.6 °F 25.9 °F 30.2 °F 81% 29.47 in 10.0 mi ESE 16.1 mph 20.7 mph 0.01 in   Overcast
7:36 PM 35.6 °F 25.9 °F 32.0 °F 87% 29.47 in 10.0 mi ESE 16.1 mph 21.9 mph 0.01 in   Overcast
7:56 PM 37.4 °F 27.5 °F 30.2 °F 75% 29.45 in 10.0 mi ESE 18.4 mph 24.2 mph 0.02 in   Overcast
8:16 PM 35.6 °F 24.8 °F 30.2 °F 81% 29.44 in 10.0 mi ESE 19.6 mph 26.5 mph 0.01 in   Overcast
8:36 PM 35.6 °F 25.5 °F 30.2 °F 81% 29.44 in 10.0 mi ESE 17.3 mph 23.0 mph 0.01 in   Overcast
8:56 PM 35.6 °F 25.2 °F 30.2 °F 81% 29.43 in 10.0 mi ESE 18.4 mph - 0.01 in   Overcast
9:16 PM 37.4 °F 28.2 °F 30.2 °F 75% 29.43 in 10.0 mi ESE 16.1 mph - 0.01 in   Overcast
9:36 PM 37.4 °F 27.2 °F 30.2 °F 75% 29.41 in 10.0 mi ESE 19.6 mph 24.2 mph 0.01 in   Overcast
9:56 PM 37.4 °F 27.8 °F 30.2 °F 75% 29.40 in 10.0 mi ESE 17.3 mph 23.0 mph 0.01 in   Overcast
10:16 PM 37.4 °F 27.8 °F 30.2 °F 75% 29.40 in 10.0 mi ESE 17.3 mph - N/A   Overcast
10:36 PM 37.4 °F 28.5 °F 30.2 °F 75% 29.40 in 10.0 mi SE 15.0 mph 20.7 mph N/A   Overcast
10:56 PM 37.4 °F 28.5 °F 28.4 °F 70% 29.40 in 10.0 mi SE 15.0 mph 25.3 mph N/A   Overcast
11:16 PM 37.4 °F 28.9 °F 30.2 °F 75% 29.40 in 10.0 mi SE 13.8 mph 20.7 mph N/A   Overcast
11:36 PM 37.4 °F 28.9 °F 30.2 °F 75% 29.39 in 10.0 mi SE 13.8 mph - N/A   Overcast
11:56 PM 37.4 °F 28.9 °F 30.2 °F 75% 29.39 in 10.0 mi SE 13.8 mph - N/A   Overcast